Hourly Data Report for August 02, 2019

QUALICUM BEACH AIRPORT
BRITISH COLUMBIA
Current Station Operator: ECCC - MSC

49°20'14.000" N
124°23'38.000" W
58.20 m
1026562
71766
VOQ

Download Data

Hourly Data (August 2019)
Hourly Data Report for August 2, 2019
TIME
LST
Temp Definition
°C
Dew Point Definition
°C
Rel Hum Definition
%
Precip. Amount Definition
mm

Wind Dir Definition
10's deg

Wind Spd Definition
km/h
Visibility Definition
km
Stn Press Definition
kPa
Hmdx Definition


Wind Chill Definition


Weather Definition


00:00 17.3 15.9 92 0.1 12 13   100.23     LegendNANA
01:00 17.2 16.2 94 0.3 13 15   100.22     LegendNANA
02:00 17.3 16.2 93 0.0 13 16   100.20     LegendNANA
03:00 17.4 16.0 92 0.0 14 14   100.23     LegendNANA
04:00 17.9 14.3 79 0.0 15 18   100.25     LegendNANA
05:00 17.5 14.3 82 0.0 18 7   100.36     LegendNANA
06:00 16.9 14.6 86 0.0 22 6   100.48     LegendNANA
07:00 17.3 14.7 85 0.0 19 7   100.56     LegendNANA
08:00 18.8 14.9 78 0.0 9 7   100.74     LegendNANA
09:00 20.8 14.1 66 0.0 11 8   100.88     LegendNANA
10:00 21.9 14.4 63 0.0 9 9   100.97 26   LegendNANA
11:00 21.6 12.6 57 0.0 8 9   101.06     LegendNANA
12:00 22.0 12.4 55 0.0 11 15   101.11     LegendNANA
13:00 22.4 13.3 56 0.0 11 12   101.14 25   LegendNANA
14:00 23.0 13.0 54 0.0 9 13   101.14 26   LegendNANA
15:00 22.7 12.4 52 0.0 10 16   101.14 25   LegendNANA
16:00 23.4 12.1 49 0.0 9 13   101.15 26   LegendNANA
17:00 23.3 12.2 50 0.0 9 10   101.17 26   LegendNANA
18:00 22.4 12.1 52 0.0 10 9   101.19 25   LegendNANA
19:00 21.5 12.6 57 0.0 9 5   101.23     LegendNANA
20:00 19.0 13.5 71 0.0 28 5   101.28     LegendNANA
21:00 19.2 13.2 68 0.0 30 14   101.35     LegendNANA
22:00 18.3 13.1 72 0.0 29 8   101.39     LegendNANA
23:00 17.9 13.6 76 0.0 28 7   101.42     LegendNANA

Notes on Data Quality.

Legend

  • E = Estimated
  • M = Missing
  • NA = Not Available*
  • [empty] = Indicates an unobserved value
Date modified: